Previsão horária em Ploskanovytsya

Hoje, 27 Fevereiro, Sábado

Tempo Temperatura Precipitação Vento Pressão Humidade
00:00 +8°C° 0 mm 1 m/s 724 mmHg 95%
01:00 +7°C° 0 mm 2 m/s 723 mmHg 95%
02:00 +4°C° 0 mm 2 m/s 724 mmHg 96%
03:00 +3°C° 0 mm 4 m/s 723 mmHg 97%
04:00 +2°C° 0 mm 7 m/s 723 mmHg 93%
05:00 0°C° 0.1 mm 8 m/s 723 mmHg 96%
06:00 -1°C° 0.1 mm 8 m/s 723 mmHg 92%
07:00 -1°C° 0.1 mm 7 m/s 724 mmHg 91%
08:00 0°C° 0 mm 5 m/s 723 mmHg 91%
09:00 0°C° 0 mm 5 m/s 724 mmHg 92%
10:00 0°C° 0 mm 5 m/s 724 mmHg 94%
11:00 +1°C° 0 mm 5 m/s 725 mmHg 92%
12:00 +1°C° 0 mm 5 m/s 725 mmHg 92%
13:00 +2°C° 0 mm 5 m/s 725 mmHg 91%
14:00 +2°C° 0 mm 5 m/s 725 mmHg 90%
15:00 +2°C° 0 mm 5 m/s 726 mmHg 90%
16:00 +3°C° 0 mm 4 m/s 726 mmHg 90%
17:00 +1°C° 0 mm 4 m/s 726 mmHg 90%
18:00 0°C° 0 mm 4 m/s 726 mmHg 92%
19:00 -1°C° 0 mm 4 m/s 726 mmHg 93%
20:00 -1°C° 0 mm 4 m/s 726 mmHg 92%
21:00 -2°C° 0 mm 4 m/s 726 mmHg 92%
22:00 -2°C° 0 mm 4 m/s 727 mmHg 91%
23:00 -2°C° 0 mm 4 m/s 727 mmHg 92%

Amanhã, 28 Fevereiro, Domingo

Tempo Temperatura Precipitação Vento Pressão Humidade
00:00 -4°C° 0 mm 5 m/s 727 mmHg 92%
01:00 -4°C° 0 mm 5 m/s 727 mmHg 92%
02:00 -4°C° 0 mm 5 m/s 727 mmHg 92%
03:00 -5°C° 0 mm 5 m/s 727 mmHg 92%
04:00 -5°C° 0 mm 5 m/s 727 mmHg 92%
05:00 -5°C° 0 mm 5 m/s 727 mmHg 93%
06:00 -4°C° 0 mm 4 m/s 727 mmHg 93%
07:00 -4°C° 0 mm 4 m/s 727 mmHg 93%
08:00 -4°C° 0 mm 4 m/s 727 mmHg 92%
09:00 -2°C° 0 mm 3 m/s 727 mmHg 91%
10:00 -2°C° 0 mm 3 m/s 728 mmHg 88%
11:00 -1°C° 0 mm 3 m/s 728 mmHg 86%
12:00 +2°C° 0 mm 2 m/s 728 mmHg 85%
13:00 +3°C° 0 mm 2 m/s 729 mmHg 86%
14:00 +3°C° 0 mm 2 m/s 729 mmHg 86%
15:00 +4°C° 0 mm 2 m/s 729 mmHg 86%
16:00 +4°C° 0 mm 2 m/s 728 mmHg 84%
17:00 +4°C° 0 mm 2 m/s 728 mmHg 84%
18:00 +3°C° 0 mm 2 m/s 728 mmHg 89%
19:00 +3°C° 0 mm 1 m/s 728 mmHg 85%
20:00 +2°C° 0 mm 1 m/s 728 mmHg 84%
21:00 +2°C° 0 mm 1 m/s 727 mmHg 84%
22:00 +1°C° 0 mm 1 m/s 727 mmHg 85%
23:00 +1°C° 0 mm 1 m/s 727 mmHg 85%

Depois de amanhã, 1 Março, Segunda-feira

Tempo Temperatura Precipitação Vento Pressão Humidade
00:00 -2°C° 0 mm 2 m/s 727 mmHg 90%
01:00 -2°C° 0 mm 2 m/s 727 mmHg 95%
02:00 -2°C° 0 mm 3 m/s 727 mmHg 96%
03:00 -3°C° 0 mm 4 m/s 727 mmHg 92%
04:00 -4°C° 0 mm 5 m/s 727 mmHg 88%
05:00 -4°C° 0 mm 5 m/s 727 mmHg 89%
06:00 -4°C° 0 mm 5 m/s 727 mmHg 89%
07:00 -4°C° 0 mm 6 m/s 727 mmHg 90%
08:00 -4°C° 0 mm 6 m/s 728 mmHg 89%
09:00 -3°C° 0 mm 7 m/s 728 mmHg 89%
10:00 -2°C° 0 mm 6 m/s 728 mmHg 88%
11:00 -1°C° 0 mm 6 m/s 729 mmHg 88%
12:00 +1°C° 0 mm 5 m/s 729 mmHg 90%
13:00 +2°C° 0 mm 5 m/s 730 mmHg 91%
14:00 +2°C° 0 mm 5 m/s 730 mmHg 90%
15:00 +3°C° 0 mm 4 m/s 730 mmHg 89%
16:00 +2°C° 0 mm 5 m/s 730 mmHg 89%
17:00 +1°C° 0 mm 5 m/s 730 mmHg 88%
18:00 0°C° 0 mm 5 m/s 729 mmHg 88%
19:00 -2°C° 0 mm 6 m/s 730 mmHg 87%
20:00 -2°C° 0 mm 6 m/s 730 mmHg 87%
21:00 -1°C° 0 mm 5 m/s 730 mmHg 86%
22:00 -1°C° 0 mm 5 m/s 730 mmHg 84%
23:00 -1°C° 0 mm 4 m/s 730 mmHg 84%

2 Março, Terça-feira

Tempo Temperatura Precipitação Vento Pressão Humidade
00:00 0°C° 0 mm 3 m/s 730 mmHg 84%
01:00 0°C° 0 mm 3 m/s 730 mmHg 83%
02:00 0°C° 0 mm 3 m/s 731 mmHg 85%
03:00 0°C° 0 mm 3 m/s 731 mmHg 83%
04:00 +2°C° 0 mm 1 m/s 730 mmHg 82%
05:00 +1°C° 0 mm 1 m/s 730 mmHg 88%
06:00 +1°C° 0 mm 1 m/s 730 mmHg 92%
07:00 0°C° 0 mm 1 m/s 730 mmHg 97%
08:00 0°C° 0 mm 1 m/s 730 mmHg 97%
09:00 +1°C° 0 mm 1 m/s 730 mmHg 99%
10:00 +1°C° 0 mm 1 m/s 731 mmHg 100%
11:00 -1°C° 0 mm 2 m/s 731 mmHg 100%
12:00 -1°C° 0 mm 2 m/s 731 mmHg 100%
13:00 -1°C° 0 mm 2 m/s 731 mmHg 100%
14:00 +1°C° 0 mm 2 m/s 731 mmHg 100%
15:00 +1°C° 0 mm 2 m/s 731 mmHg 100%
16:00 0°C° 0 mm 3 m/s 731 mmHg 100%
17:00 +1°C° 0 mm 2 m/s 731 mmHg 100%
18:00 -1°C° 0 mm 2 m/s 730 mmHg 100%
19:00 +1°C° 0 mm 1 m/s 730 mmHg 100%
20:00 +2°C° 0 mm 1 m/s 730 mmHg 100%
21:00 +2°C° 0 mm 1 m/s 731 mmHg 100%
22:00 +2°C° 0 mm 1 m/s 731 mmHg 100%
23:00 +2°C° 0 mm 1 m/s 731 mmHg 100%

3 Março, Quarta-feira

Tempo Temperatura Precipitação Vento Pressão Humidade
00:00 +1°C° 0 mm 1 m/s 731 mmHg 100%
01:00 +1°C° 0 mm 1 m/s 730 mmHg 100%
02:00 +1°C° 0.1 mm 1 m/s 730 mmHg 100%
03:00 0°C° 0.1 mm 0 m/s 730 mmHg 100%
04:00 +1°C° 0.1 mm 1 m/s 730 mmHg 100%
05:00 +1°C° 0.1 mm 1 m/s 730 mmHg 100%
06:00 +1°C° 0.1 mm 1 m/s 730 mmHg 100%
07:00 +1°C° 0.1 mm 1 m/s 730 mmHg 100%
08:00 +1°C° 0 mm 1 m/s 730 mmHg 100%
09:00 +1°C° 0 mm 1 m/s 730 mmHg 100%
10:00 -1°C° 0 mm 2 m/s 730 mmHg 100%
11:00 -1°C° 0 mm 2 m/s 730 mmHg 100%
12:00 -1°C° 0 mm 2 m/s 730 mmHg 100%
13:00 -1°C° 0 mm 3 m/s 730 mmHg 100%
14:00 -1°C° 0 mm 3 m/s 730 mmHg 100%
15:00 0°C° 0 mm 3 m/s 730 mmHg 100%
16:00 0°C° 0 mm 3 m/s 729 mmHg 100%
17:00 +1°C° 0 mm 2 m/s 729 mmHg 98%
18:00 -1°C° 0 mm 2 m/s 728 mmHg 100%
19:00 -1°C° 0 mm 2 m/s 728 mmHg 100%
20:00 -2°C° 0 mm 2 m/s 728 mmHg 100%
21:00 -2°C° 0 mm 2 m/s 728 mmHg 100%
22:00 -2°C° 0 mm 2 m/s 728 mmHg 100%
23:00 0°C° 0 mm 1 m/s 728 mmHg 100%

4 Março, Quinta-feira

Tempo Temperatura Precipitação Vento Pressão Humidade
00:00 -2°C° 0 mm 2 m/s 727 mmHg 100%
01:00 0°C° 0 mm 1 m/s 727 mmHg 100%
02:00 0°C° 0 mm 1 m/s 726 mmHg 100%
03:00 -1°C° 0 mm 1 m/s 726 mmHg 100%
04:00 -1°C° 0 mm 1 m/s 725 mmHg 100%
05:00 -1°C° 0 mm 1 m/s 725 mmHg 100%
06:00 -1°C° 0 mm 1 m/s 725 mmHg 100%
07:00 -1°C° 0 mm 1 m/s 724 mmHg 100%
08:00 -1°C° 0 mm 1 m/s 724 mmHg 100%
09:00 -3°C° 0.1 mm 2 m/s 724 mmHg 100%
10:00 -3°C° 0.1 mm 2 m/s 724 mmHg 100%
11:00 -4°C° 0 mm 3 m/s 723 mmHg 100%
12:00 -2°C° 0 mm 3 m/s 723 mmHg 100%
13:00 -2°C° 0 mm 2 m/s 723 mmHg 100%
14:00 -1°C° 0 mm 2 m/s 722 mmHg 100%
15:00 -1°C° 0 mm 2 m/s 722 mmHg 100%
16:00 -1°C° 0 mm 2 m/s 722 mmHg 99%
17:00 -1°C° 0 mm 2 m/s 721 mmHg 100%
18:00 -1°C° 0 mm 2 m/s 721 mmHg 100%
19:00 0°C° 0 mm 1 m/s 721 mmHg 100%
20:00 0°C° 0 mm 1 m/s 720 mmHg 100%
21:00 0°C° 0 mm 1 m/s 720 mmHg 100%
22:00 0°C° 0 mm 1 m/s 720 mmHg 100%
23:00 0°C° 0 mm 1 m/s 720 mmHg 100%
Mostrar mais

Necessitamos do seu Consentimento

A Meteoprog e os seus Fornecedores de Serviços podem armazenar e aceder a dados pessoais como cookies, identificadores do dispositivo ou outras tecnologias semelhantes existentes no seu dispositivo e processar estes dados para personalizar conteúdos e anúncios, assim como funcionalidades nas redes sociais e análise de tráfego.

  • Armazenar e/ou aceder a informações no seu dispositivo

    Os cookies, identificadores do dispositivo ou outras informações podem ser armazenados ou acedidos no seu dispositivo, para os fins acima indicados.

  • Anúncios e conteúdos personalizados, medição de anúncios e conteúdos, dados sobre o público-alvo e desenvolvimento de produtos

    Os anúncios e os conteúdos podem ser personalizados com base num perfil. Podem ser adicionados dados adicionais para uma maior personalização dos anúncios e dos conteúdos. A eficácia dos anúncios e dos conteúdos pode ser medida. Podem ser obtidas informações sobre o público que visualizou os anúncios e os conteúdos. Estes dados podem ser usados para desenvolver ou melhorar sistemas, softwares ou a experiência do utilizador.

Ao clicar em "Eu concordo”, permitirá o uso de cookies, identificadores do dispositivo e web beacons mencionados ou outras tecnologias semelhantes. As configurações do navegador do seu dispositivo podem ser alteradas.

Para certos fins, podem ser invocados interesses legítimos ao invés de consentimento. Pode ler mais informação sobre este assunto na nossa Política de Privacidade e Cookies.